Time,TemperatureF,DewpointF,PressureIn,WindDirection,WindDirectionDegrees,WindSpeedMPH,WindSpeedGustMPH,Humidity,HourlyPrecipIn,Conditions,Clouds,dailyrainin,SoftwareType,DateUTC
2013-07-28 10:43:00,74.0,66.0,29.97,SSE,152,0.0,-999.0,77,-99.99,,,-99.99,,2013-07-28 14:43:00,
2013-07-28 10:53:00,74.0,66.0,29.97,SSE,152,0.0,-999.0,77,-99.99,,,-99.99,,2013-07-28 14:53:00,
2013-07-28 11:03:00,74.0,65.0,29.97,SSE,152,0.0,-999.0,74,-99.99,,,-99.99,,2013-07-28 15:03:00,
2013-07-28 11:13:00,75.0,66.0,29.96,SSE,153,0.0,-999.0,74,-99.99,,,-99.99,,2013-07-28 15:13:00,
2013-07-28 11:23:00,75.0,66.0,29.96,SSE,153,0.0,-999.0,74,-99.99,,,-99.99,,2013-07-28 15:23:00,
2013-07-28 11:33:00,76.0,66.0,29.96,SSE,152,0.0,-999.0,72,-99.99,,,-99.99,,2013-07-28 15:33:00,
2013-07-28 11:43:00,77.0,65.0,29.96,SSW,195,0.0,-999.0,66,-99.99,,,-99.99,,2013-07-28 15:43:00,
2013-07-28 11:53:00,77.0,65.0,29.96,SSW,195,0.0,-999.0,66,-99.99,,,-99.99,,2013-07-28 15:53:00,
2013-07-28 12:03:00,78.0,65.0,29.96,SSW,197,0.0,-999.0,65,-99.99,,,-99.99,,2013-07-28 16:03:00,
2013-07-28 12:12:00,79.0,68.0,29.96,SSW,197,0.0,-999.0,70,-99.99,,,-99.99,,2013-07-28 16:12:00,
2013-07-28 12:22:00,79.0,68.0,29.96,SSW,197,0.0,-999.0,70,-99.99,,,-99.99,,2013-07-28 16:22:00,
2013-07-28 12:33:00,79.0,65.0,29.96,SSW,197,0.0,-999.0,62,-99.99,,,-99.99,,2013-07-28 16:33:00,
2013-07-28 12:43:00,79.0,66.0,29.96,SSW,197,0.0,-999.0,64,-99.99,,,-99.99,,2013-07-28 16:43:00,
2013-07-28 12:52:00,79.0,66.0,29.96,SSW,197,0.0,-999.0,64,-99.99,,,-99.99,,2013-07-28 16:52:00,
2013-07-28 13:02:00,79.0,67.0,29.96,SSW,197,0.0,-999.0,66,-99.99,,,-99.99,,2013-07-28 17:02:00,
2013-07-28 13:13:00,78.0,65.0,29.96,SSW,198,0.0,-999.0,65,-99.99,,,-99.99,,2013-07-28 17:13:00,
2013-07-28 13:23:00,78.0,65.0,29.96,SSW,198,0.0,-999.0,65,-99.99,,,-99.99,,2013-07-28 17:23:00,
2013-07-28 13:33:00,78.0,66.0,29.96,SSW,199,0.0,-999.0,67,-99.99,,,-99.99,,2013-07-28 17:33:00,
2013-07-28 13:53:00,78.0,68.0,29.96,SSW,199,0.0,-999.0,71,-99.99,,,-99.99,,2013-07-28 17:53:00,
2013-07-28 14:03:00,77.0,68.0,29.96,SSW,199,0.0,-999.0,73,-99.99,,,-99.99,,2013-07-28 18:03:00,
2013-07-28 14:13:00,76.0,67.0,29.96,SSW,199,0.0,-999.0,75,-99.99,,,-99.99,,2013-07-28 18:13:00,
2013-07-28 14:23:00,76.0,67.0,29.96,SSW,199,0.0,-999.0,75,-99.99,,,-99.99,,2013-07-28 18:23:00,
2013-07-28 14:33:00,76.0,67.0,29.96,SSW,199,0.0,-999.0,75,-99.99,,,-99.99,,2013-07-28 18:33:00,
2013-07-28 14:43:00,76.0,68.0,29.96,SSW,209,0.0,-999.0,77,-99.99,,,-99.99,,2013-07-28 18:43:00,
2013-07-28 14:52:00,76.0,68.0,29.96,SSW,209,0.0,-999.0,77,-99.99,,,-99.99,,2013-07-28 18:52:00,
2013-07-28 15:03:00,76.0,69.0,29.95,SSW,210,0.0,-999.0,78,-99.99,,,-99.99,,2013-07-28 19:03:00,
2013-07-28 15:12:00,76.0,69.0,29.95,SSW,210,0.0,-999.0,78,-99.99,,,-99.99,,2013-07-28 19:12:00,
2013-07-28 15:23:00,76.0,69.0,29.95,SSW,210,0.0,-999.0,78,-99.99,,,-99.99,,2013-07-28 19:23:00,
2013-07-28 15:33:00,75.0,67.0,29.94,SW,215,0.0,-999.0,77,-99.99,,,-99.99,,2013-07-28 19:33:00,
2013-07-28 15:53:00,75.0,65.0,29.93,SW,214,0.0,-999.0,72,-99.99,,,-99.99,,2013-07-28 19:53:00,
2013-07-28 16:03:00,75.0,65.0,29.93,SW,215,0.0,-999.0,72,-99.99,,,-99.99,,2013-07-28 20:03:00,
2013-07-28 16:13:00,75.0,65.0,29.94,SW,215,0.0,-999.0,72,-99.99,,,-99.99,,2013-07-28 20:13:00,
2013-07-28 16:23:00,75.0,65.0,29.94,SW,215,0.0,-999.0,72,-99.99,,,-99.99,,2013-07-28 20:23:00,
2013-07-28 16:33:00,75.0,66.0,29.94,SW,215,0.0,-999.0,74,-99.99,,,-99.99,,2013-07-28 20:33:00,
2013-07-28 16:52:00,75.0,67.0,29.95,SW,216,0.0,-999.0,75,-99.99,,,-99.99,,2013-07-28 20:52:00,
2013-07-28 17:03:00,75.0,67.0,29.95,SW,216,0.0,-999.0,76,-99.99,,,-99.99,,2013-07-28 21:03:00,
2013-07-28 17:13:00,75.0,67.0,29.95,SW,216,0.0,-999.0,76,-99.99,,,-99.99,,2013-07-28 21:13:00,
2013-07-28 17:23:00,75.0,67.0,29.94,SW,216,0.0,-999.0,77,-99.99,,,-99.99,,2013-07-28 21:23:00,
2013-07-28 17:33:00,74.0,66.0,29.95,SW,222,0.0,-999.0,77,-99.99,,,-99.99,,2013-07-28 21:33:00,
2013-07-28 17:44:00,74.0,66.0,29.95,SW,223,0.0,-999.0,77,-99.99,,,-99.99,,2013-07-28 21:44:00,
2013-07-28 17:52:00,74.0,66.0,29.95,SW,223,0.0,-999.0,77,-99.99,,,-99.99,,2013-07-28 21:52:00,
2013-07-28 18:02:00,74.0,66.0,29.95,SW,224,0.0,-999.0,77,-99.99,,,-99.99,,2013-07-28 22:02:00,
2013-07-28 18:12:00,74.0,66.0,29.95,SW,224,0.0,-999.0,76,-99.99,,,-99.99,,2013-07-28 22:12:00,
2013-07-28 18:22:00,74.0,66.0,29.95,SW,224,0.0,-999.0,76,-99.99,,,-99.99,,2013-07-28 22:22:00,
2013-07-28 18:32:00,74.0,66.0,29.95,SW,224,0.0,-999.0,76,-99.99,,,-99.99,,2013-07-28 22:32:00,
2013-07-28 18:43:00,73.0,65.0,29.96,SW,224,0.0,-999.0,75,-99.99,,,-99.99,,2013-07-28 22:43:00,
2013-07-28 18:52:00,73.0,65.0,29.96,SW,224,0.0,-999.0,75,-99.99,,,-99.99,,2013-07-28 22:52:00,
2013-07-28 19:03:00,73.0,64.0,29.97,SW,224,0.0,-999.0,73,-99.99,,,-99.99,,2013-07-28 23:03:00,
2013-07-28 19:12:00,72.0,64.0,29.97,SW,224,0.0,-999.0,75,-99.99,,,-99.99,,2013-07-28 23:12:00,
2013-07-28 19:22:00,72.0,64.0,29.97,SW,224,0.0,-999.0,75,-99.99,,,-99.99,,2013-07-28 23:22:00,
2013-07-28 19:33:00,71.0,63.0,29.98,SW,224,0.0,-999.0,76,-99.99,,,-99.99,,2013-07-28 23:33:00,
2013-07-28 19:43:00,71.0,64.0,29.98,SW,224,0.0,-999.0,78,-99.99,,,-99.99,,2013-07-28 23:43:00,
2013-07-28 19:53:00,71.0,64.0,29.98,SW,224,0.0,-999.0,78,-99.99,,,-99.99,,2013-07-28 23:53:00,
2013-07-28 20:03:00,70.0,64.0,29.97,SW,224,0.0,-999.0,80,-99.99,,,-99.99,,2013-07-29 00:03:00,
2013-07-28 20:22:00,70.0,64.0,29.96,SW,224,0.0,-999.0,82,-99.99,,,-99.99,,2013-07-29 00:22:00,
2013-07-28 20:32:00,70.0,65.0,29.95,WSW,243,1.0,-999.0,83,-99.99,,,-99.99,,2013-07-29 00:32:00,
2013-07-28 20:52:00,70.0,65.0,29.94,South,191,0.0,-999.0,84,-99.99,,,-99.99,,2013-07-29 00:52:00,
2013-07-28 21:02:00,69.0,64.0,29.92,SSW,202,0.0,-999.0,85,-99.99,,,-99.99,,2013-07-29 01:02:00,
2013-07-28 21:14:00,69.0,65.0,29.93,SW,228,0.0,-999.0,86,-99.99,,,-99.99,,2013-07-29 01:14:00,
2013-07-28 21:29:00,69.0,65.0,29.93,SW,228,0.0,-999.0,86,-99.99,,,-99.99,,2013-07-29 01:29:00,
2013-07-28 21:38:00,69.0,65.0,29.93,SW,228,0.0,-999.0,86,-99.99,,,-99.99,,2013-07-29 01:38:00,
2013-07-28 21:58:00,69.0,65.0,29.96,NNE,25,0.0,-999.0,87,-99.99,,,-99.99,,2013-07-29 01:58:00,
2013-07-28 22:15:00,68.0,64.0,29.96,NNW,332,0.0,-999.0,88,-99.99,,,-99.99,,2013-07-29 02:15:00,
2013-07-28 22:27:00,68.0,64.0,29.96,NNW,332,0.0,-999.0,88,-99.99,,,-99.99,,2013-07-29 02:27:00,
2013-07-28 22:58:00,68.0,65.0,29.97,NNW,332,0.0,-999.0,89,-99.99,,,-99.99,,2013-07-29 02:58:00,
2013-07-28 23:05:00,68.0,65.0,29.98,NNW,332,0.0,-999.0,89,-99.99,,,-99.99,,2013-07-29 03:05:00,
2013-07-28 23:17:00,68.0,65.0,29.98,NNW,332,0.0,-999.0,89,-99.99,,,-99.99,,2013-07-29 03:17:00,
2013-07-28 23:25:00,68.0,65.0,29.99,NNW,332,0.0,-999.0,89,-99.99,,,-99.99,,2013-07-29 03:25:00,
2013-07-28 23:37:00,68.0,65.0,29.98,NNW,332,0.0,-999.0,90,-99.99,,,-99.99,,2013-07-29 03:37:00,
2013-07-28 23:48:00,68.0,65.0,29.97,NNW,332,0.0,-999.0,90,-99.99,,,-99.99,,2013-07-29 03:48:00,
2013-07-28 23:57:00,68.0,65.0,29.97,NNW,332,0.0,-999.0,90,-99.99,,,-99.99,,2013-07-29 03:57:00,